TimePST,TemperatureF,Dew PointF,Humidity,Sea Level PressureIn,VisibilityMPH,Wind Direction,Wind SpeedMPH,Gust SpeedMPH,PrecipitationIn,Events,Conditions,WindDirDegrees,DateUTC
12:00 AM,24.8,-9999,N/A,30.28,10.0,SSW,6.9,-,N/A,,Clear,200,2012-11-15 08:00:00
12:20 AM,24.8,-9999,N/A,30.28,10.0,South,3.5,-,N/A,,Clear,190,2012-11-15 08:20:00
12:40 AM,24.8,-9999,N/A,30.27,10.0,South,4.6,-,N/A,,Clear,180,2012-11-15 08:40:00
1:00 AM,24.8,-9999,N/A,30.27,10.0,South,5.8,-,N/A,,Clear,190,2012-11-15 09:00:00
1:20 AM,26.6,-9999,N/A,30.27,10.0,South,6.9,-,N/A,,Clear,190,2012-11-15 09:20:00
1:40 AM,26.6,-9999,N/A,30.28,10.0,SSW,8.1,-,N/A,,Clear,210,2012-11-15 09:40:00
2:00 AM,26.6,-9999,N/A,30.28,10.0,SSW,8.1,-,N/A,,Clear,210,2012-11-15 10:00:00
2:20 AM,24.8,-9999,N/A,30.28,10.0,SSW,5.8,-,N/A,,Clear,200,2012-11-15 10:20:00
2:40 AM,24.8,-9999,N/A,30.28,10.0,SSW,8.1,-,N/A,,Clear,200,2012-11-15 10:40:00
3:00 AM,24.8,-9999,N/A,30.27,10.0,SSW,5.8,-,N/A,,Clear,200,2012-11-15 11:00:00
3:20 AM,23.0,-9999,N/A,30.27,10.0,SSW,5.8,-,N/A,,Clear,200,2012-11-15 11:20:00
3:40 AM,23.0,-9999,N/A,30.27,10.0,SW,8.1,-,N/A,,Clear,220,2012-11-15 11:40:00
4:00 AM,21.2,-9999,N/A,30.27,10.0,Calm,Calm,-,N/A,,Clear,0,2012-11-15 12:00:00
4:20 AM,19.4,-9999,N/A,30.28,10.0,Calm,Calm,-,N/A,,Clear,0,2012-11-15 12:20:00
4:40 AM,17.6,-9999,N/A,30.28,10.0,Calm,Calm,-,N/A,,Clear,0,2012-11-15 12:40:00
5:00 AM,17.6,-9999,N/A,30.28,10.0,WSW,3.5,-,N/A,,Clear,250,2012-11-15 13:00:00
5:20 AM,17.6,-9999,N/A,30.28,10.0,SSW,3.5,-,N/A,,Clear,200,2012-11-15 13:20:00
5:40 AM,19.4,-9999,N/A,30.28,10.0,SSW,4.6,-,N/A,,Clear,210,2012-11-15 13:40:00
6:00 AM,21.2,-9999,N/A,30.28,10.0,SSW,6.9,-,N/A,,Clear,210,2012-11-15 14:00:00
6:20 AM,19.4,-9999,N/A,30.29,10.0,SW,6.9,-,N/A,,Clear,230,2012-11-15 14:20:00
6:40 AM,19.4,-9999,N/A,30.29,10.0,SSW,5.8,-,N/A,,Clear,210,2012-11-15 14:40:00
7:00 AM,19.4,-9999,N/A,30.29,10.0,SSW,5.8,-,N/A,,Clear,210,2012-11-15 15:00:00
7:20 AM,23.0,-9999,N/A,30.29,10.0,SSW,4.6,-,N/A,,Clear,200,2012-11-15 15:20:00
7:40 AM,-9999,-9999,N/A,30.29,10.0,SSW,3.5,-,N/A,,Clear,210,2012-11-15 15:40:00
8:00 AM,28.4,-9999,N/A,30.30,10.0,South,3.5,-,N/A,,Clear,180,2012-11-15 16:00:00
8:20 AM,32.0,-9999,N/A,30.30,0.8,Calm,Calm,-,N/A,,Unknown,0,2012-11-15 16:20:00
8:40 AM,33.8,-9999,N/A,30.30,10.0,Calm,Calm,-,N/A,,Clear,0,2012-11-15 16:40:00
9:00 AM,37.4,21.2,52,30.30,10.0,Calm,Calm,-,0.02,,Clear,0,2012-11-15 17:00:00
9:20 AM,37.4,21.2,52,30.30,10.0,Calm,Calm,-,N/A,,Clear,0,2012-11-15 17:20:00
9:35 AM,41.0,23.0,49,30.29,10.0,Calm,Calm,-,N/A,,Clear,0,2012-11-15 17:35:00
9:55 AM,41.0,23.0,49,30.29,10.0,Calm,Calm,-,N/A,,Clear,0,2012-11-15 17:55:00
10:15 AM,41.0,23.0,49,30.29,10.0,NNE,3.5,-,N/A,,Clear,30,2012-11-15 18:15:00
10:35 AM,41.0,23.0,49,30.26,10.0,NE,3.5,-,N/A,,Unknown,50,2012-11-15 18:35:00
10:55 AM,44.6,24.8,46,30.24,10.0,NE,3.5,-,N/A,,Clear,50,2012-11-15 18:55:00
11:15 AM,46.4,24.8,43,30.23,10.0,Calm,Calm,-,N/A,,Clear,0,2012-11-15 19:15:00
11:35 AM,48.2,26.6,43,30.22,10.0,ENE,3.5,-,0.02,,Clear,70,2012-11-15 19:35:00
11:55 AM,50.0,26.6,40,30.20,10.0,NNE,4.6,-,0.02,,Clear,30,2012-11-15 19:55:00
12:15 PM,51.8,24.8,35,30.19,10.0,NE,4.6,-,N/A,,Clear,40,2012-11-15 20:15:00
12:35 PM,55.4,24.8,31,30.18,10.0,NE,3.5,-,N/A,,Clear,50,2012-11-15 20:35:00
12:55 PM,57.2,19.4,23,30.17,10.0,ESE,13.8,-,N/A,,Clear,120,2012-11-15 20:55:00
1:15 PM,59.0,19.4,22,30.17,10.0,South,6.9,16.1,N/A,,Clear,190,2012-11-15 21:15:00
1:35 PM,59.0,17.6,20,30.16,10.0,SSE,12.7,-,N/A,,Clear,160,2012-11-15 21:35:00
1:55 PM,59.0,17.6,20,30.15,10.0,SSE,12.7,-,N/A,,Clear,160,2012-11-15 21:55:00
2:15 PM,59.0,17.6,20,30.15,10.0,SSE,15.0,-,N/A,,Clear,160,2012-11-15 22:15:00
2:55 PM,59.0,15.8,19,30.14,10.0,South,18.4,-,N/A,,Clear,170,2012-11-15 22:55:00
3:15 PM,57.2,17.6,21,30.14,10.0,SSE,12.7,18.4,N/A,,Clear,160,2012-11-15 23:15:00
3:35 PM,53.6,17.6,24,30.14,10.0,SSE,12.7,-,N/A,,Clear,160,2012-11-15 23:35:00
3:55 PM,51.8,19.4,28,30.13,10.0,SSE,13.8,17.3,N/A,,Clear,160,2012-11-15 23:55:00
4:15 PM,50.0,23.0,35,30.13,10.0,SSE,12.7,-,N/A,,Clear,150,2012-11-16 00:15:00
4:35 PM,48.2,19.4,32,30.13,10.0,SSE,16.1,-,N/A,,Clear,160,2012-11-16 00:35:00
4:55 PM,50.0,19.4,30,30.13,10.0,SSE,11.5,20.7,N/A,,Clear,160,2012-11-16 00:55:00
5:35 PM,48.2,17.6,30,30.13,10.0,SE,11.5,-,N/A,,Partly Cloudy,140,2012-11-16 01:35:00
5:55 PM,48.2,19.4,32,30.13,10.0,SE,10.4,-,N/A,,Partly Cloudy,140,2012-11-16 01:55:00
6:15 PM,46.4,19.4,34,30.13,9.0,SE,8.1,-,N/A,,Scattered Clouds,140,2012-11-16 02:15:00
6:35 PM,46.4,17.6,32,30.12,10.0,SE,8.1,-,N/A,,Clear,130,2012-11-16 02:35:00
6:55 PM,46.4,17.6,32,30.13,10.0,SE,6.9,-,N/A,,Partly Cloudy,140,2012-11-16 02:55:00
7:15 PM,46.4,19.4,34,30.13,10.0,SE,9.2,-,N/A,,Partly Cloudy,140,2012-11-16 03:15:00
7:35 PM,46.4,21.2,37,30.13,10.0,SE,6.9,-,N/A,,Mostly Cloudy,140,2012-11-16 03:35:00
7:55 PM,44.6,19.4,37,30.14,10.0,South,6.9,-,N/A,,Mostly Cloudy,180,2012-11-16 03:55:00
8:15 PM,48.2,17.6,30,30.14,10.0,SE,12.7,-,N/A,,Overcast,140,2012-11-16 04:15:00
8:35 PM,48.2,17.6,30,30.14,10.0,ESE,10.4,-,N/A,,Overcast,120,2012-11-16 04:35:00
8:55 PM,48.2,19.4,32,30.14,10.0,SE,9.2,-,N/A,,Overcast,140,2012-11-16 04:55:00
9:15 PM,46.4,19.4,34,30.13,10.0,SSE,9.2,-,N/A,,Overcast,150,2012-11-16 05:15:00
9:35 PM,46.4,19.4,34,30.13,10.0,SSE,8.1,-,N/A,,Mostly Cloudy,150,2012-11-16 05:35:00
9:55 PM,46.4,17.6,32,30.13,10.0,South,10.4,-,N/A,,Mostly Cloudy,170,2012-11-16 05:55:00
10:15 PM,46.4,15.8,29,30.12,10.0,South,11.5,-,N/A,,Overcast,170,2012-11-16 06:15:00
10:35 PM,46.4,15.8,29,30.12,10.0,SSW,6.9,-,N/A,,Mostly Cloudy,210,2012-11-16 06:35:00
10:55 PM,44.6,17.6,34,30.12,10.0,SSW,9.2,-,N/A,,Mostly Cloudy,200,2012-11-16 06:55:00
11:15 PM,44.6,19.4,37,30.13,10.0,South,8.1,-,N/A,,Overcast,180,2012-11-16 07:15:00
11:35 PM,44.6,19.4,37,30.13,10.0,SSW,9.2,-,N/A,,Mostly Cloudy,200,2012-11-16 07:35:00
11:55 PM,44.6,17.6,34,30.13,10.0,South,9.2,-,N/A,,Mostly Cloudy,170,2012-11-16 07:55:00